Torna al catalogo

COSMOS 1358

AttivoNavigazioneLEO
NORAD 13161·PAYLOAD·🇷🇺 Russia

Lanciato May 6, 1982 da Plesetsk Cosmodrome

Loading…

Prossimi Passaggi (prossime 24 ore)

TLE

AggiornatoSource: Space-Track

Epoca: Sep 14, 2026, 08:57 UTC

1 13161U 82040B   26257.37307213 -.00000026  00000-0 -62776-4 0  9996
2 13161  74.0132  33.7944 0041350 100.4609 288.8030 12.53997197 30492

Traccia COSMOS 1358 in tempo reale con AllMySat

Download on the App Store